FW7859 Weather Reports


time (UTC)temp
C
wind
direction
speed
KPH
gust
KPH
rain 1hr
cm
rain 24hr
cm
rain mn
cm
humidity
%
barometer
mb
20260503013503 17 315 6.4 16.1 0.00 0.00 0.00 86 1016.1
20260503013003 17 302 6.4 11.3 0.00 0.00 0.00 86 1016.0
20260503012503 17 297 4.8 6.4 0.00 0.00 0.00 86 1016.2
20260503012003 17 300 3.2 6.4 0.00 0.00 0.00 87 1016.3
20260503011503 17 297 3.2 12.9 0.00 0.00 0.00 87 1016.5
20260503011003 17 291 4.8 12.9 0.00 0.00 0.00 87 1016.3
20260503010503 17 301 4.8 12.9 0.00 0.00 0.00 87 1016.5
20260503010213 17 312 6.4 12.9 0.00 0.00 0.00 87 1016.5
20260503005503 17 309 6.4 11.3 0.00 0.00 0.00 87 1016.5
20260503005003 17 296 4.8 11.3 0.00 0.00 0.00 87 1016.7
20260503004503 17 274 4.8 9.7 0.00 0.00 0.00 87 1016.9
20260503004003 17 264 3.2 9.7 0.00 0.00 0.00 87 1016.9
20260503003503 17 251 3.2 6.4 0.00 0.00 0.00 88 1017.2
20260503003003 17 283 3.2 11.3 0.00 0.00 0.00 88 1017.2
20260503002503 17 4 6.4 16.1 0.00 0.00 0.00 88 1016.8
20260503002217 17 4 8.0 20.9 0.00 0.00 0.00 88 1016.6
20260503001503 17 321 8.0 20.9 0.00 0.00 0.00 88 1016.5
20260503001003 17 313 8.0 16.1 0.00 0.00 0.00 88 1017.0
20260503000503 17 328 9.7 17.7 0.00 0.00 0.00 88 1017.2
20260503000003 17 326 9.7 17.7 0.00 0.00 0.00 88 1017.0
20260502235504 17 286 9.7 16.1 0.00 0.00 0.00 88 1017.3
20260502235215 17 263 9.7 14.5 0.00 0.00 0.00 88 1017.7
20260502234713 17 263 8.0 14.5 0.00 0.00 0.00 88 1017.9
20260502234003 17 279 6.4 14.5 0.00 0.00 0.00 88 1017.9
20260502233503 17 287 6.4 14.5 0.00 0.00 0.00 88 1018.0
20260502233004 17 285 8.0 14.5 0.00 0.00 0.00 88 1018.0
20260502232503 17 277 6.4 12.9 0.00 0.00 0.00 88 1017.9
20260502232003 17 278 6.4 14.5 0.00 0.00 0.00 88 1017.8
20260502231504 17 276 4.8 14.5 0.00 0.00 0.00 88 1017.6
20260502231003 17 270 4.8 12.9 0.00 0.00 0.00 88 1017.9
20260502230503 17 276 6.4 12.9 0.00 0.00 0.00 89 1017.8
20260502230003 17 285 8.0 12.9 0.00 0.00 0.00 89 1017.8
20260502225503 17 285 8.0 14.5 0.00 0.00 0.00 89 1017.8
20260502225003 17 281 8.0 14.5 0.00 0.00 0.00 89 1017.7
20260502224503 17 303 8.0 14.5 0.00 0.00 0.00 89 1017.8
20260502224003 17 324 8.0 14.5 0.00 0.00 0.00 89 1017.4
20260502223503 17 319 6.4 14.5 0.00 0.00 0.00 89 1017.4
20260502223213 17 314 6.4 14.5 0.00 0.00 0.00 89 1017.6
20260502222503 17 319 8.0 12.9 0.00 0.00 0.00 89 1017.5
20260502222003 17 324 6.4 12.9 0.00 0.00 0.00 89 1017.5
20260502221503 17 314 6.4 11.3 0.00 0.00 0.00 89 1017.4
20260502221003 17 306 4.8 11.3 0.00 0.00 0.00 89 1017.5
20260502220505 17 310 6.4 12.9 0.00 0.00 0.00 89 1017.4
20260502220004 17 307 6.4 12.9 0.00 0.00 0.00 89 1017.7
20260502215503 17 301 4.8 11.3 0.00 0.00 0.00 89 1017.8
20260502215003 17 315 6.4 11.3 0.00 0.00 0.00 88 1017.7
20260502214503 17 331 6.4 12.9 0.00 0.00 0.00 88 1017.8
20260502214003 17 338 6.4 12.9 0.00 0.00 0.00 88 1017.9
20260502213504 17 338 6.4 12.9 0.00 0.00 0.00 88 1017.8
20260502213003 17 340 8.0 16.1 0.00 0.00 0.00 88 1017.9
20260502212503 17 343 8.0 16.1 0.00 0.00 0.00 88 1018.1
20260502212004 18 345 6.4 12.9 0.00 0.00 0.00 88 1018.0
20260502211503 18 343 8.0 14.5 0.00 0.00 0.00 88 1017.9
20260502211003 18 354 6.4 14.5 0.00 0.00 0.00 88 1017.9
20260502210506 18 20 4.8 12.9 0.00 0.00 0.00 88 1017.7
20260502210003 18 36 4.8 14.5 0.00 0.00 0.00 88 1017.9
20260502205504 18 44 6.4 14.5 0.00 0.00 0.00 88 1017.9
20260502205003 18 48 4.8 14.5 0.00 0.00 0.00 88 1017.9
20260502204503 18 55 3.2 22.5 0.00 0.00 0.00 88 1017.9
20260502204213 18 67 4.8 22.5 0.00 0.00 0.00 88 1017.9
20260502203503 18 80 4.8 14.5 0.00 0.00 0.00 88 1017.8
20260502203003 18 87 4.8 14.5 0.00 0.00 0.00 88 1017.9
20260502202503 18 84 3.2 14.5 0.00 0.00 0.00 88 1018.3
20260502202003 18 92 4.8 17.7 0.00 0.00 0.00 88 1017.9
20260502201503 18 85 6.4 20.9 0.00 0.00 0.00 89 1017.9
20260502201003 18 70 3.2 20.9 0.00 0.00 0.00 88 1017.7
20260502200503 18 53 3.2 14.5 0.00 0.00 0.00 88 1017.9
20260502200003 18 29 6.4 14.5 0.00 0.00 0.00 88 1017.7
20260502195505 18 29 6.4 17.7 0.00 0.00 0.00 88 1017.5
20260502195212 18 23 6.4 17.7 0.00 0.00 0.00 88 1017.7
20260502194503 18 42 6.4 14.5 0.00 0.00 0.00 88 1017.4
20260502194004 18 73 4.8 17.7 0.00 0.00 0.00 88 1017.2
20260502193503 18 66 6.4 25.7 0.00 0.00 0.00 88 1017.3
20260502193003 18 43 9.7 25.7 0.00 0.00 0.00 88 1017.3
20260502192503 18 37 9.7 22.5 0.00 0.00 0.00 88 1017.4
20260502192012 18 42 8.0 22.5 0.00 0.00 0.00 88 1017.2
20260502191503 18 38 9.7 29.0 0.00 0.00 0.00 88 1017.2
20260502191007 18 43 9.7 29.0 0.00 0.00 0.00 88 1017.1
20260502190503 18 69 8.0 24.1 0.00 0.00 0.00 88 1017.2
20260502190004 18 56 9.7 27.4 0.00 0.00 0.00 87 1017.1
20260502185503 18 47 8.0 27.4 0.00 0.00 0.00 87 1017.3
20260502185003 18 38 8.0 25.7 0.00 0.00 0.00 86 1017.1
20260502184503 18 37 9.7 25.7 0.00 0.00 0.00 86 1017.2
20260502184003 18 49 9.7 29.0 0.00 0.00 0.00 86 1017.2
20260502183717 18 49 9.7 29.0 0.00 0.00 0.00 86 1017.0
20260502182503 18 56 8.0 30.6 0.00 0.00 0.00 86 1017.3
20260502182003 18 38 11.3 25.7 0.00 0.00 0.00 86 1017.2
20260502181503 18 34 12.9 29.0 0.00 0.00 0.00 86 1017.4
20260502181217 18 39 11.3 33.8 0.00 0.00 0.00 85 1017.2
20260502180503 18 48 9.7 33.8 0.00 0.00 0.00 85 1017.3
20260502164003 19 69 8.0 27.4 0.00 0.00 0.00 83 1017.7
20260502163503 19 54 11.3 29.0 0.00 0.00 0.00 83 1017.6
20260502163005 20 43 11.3 29.0 0.00 0.00 0.00 82 1018.0
20260502162503 20 76 8.0 24.1 0.00 0.00 0.00 82 1018.0
20260502162003 20 82 8.0 20.9 0.00 0.00 0.00 82 1017.9
20260502161503 20 72 9.7 30.6 0.00 0.00 0.00 83 1018.0
20260502161003 20 63 9.7 30.6 0.00 0.00 0.00 82 1017.9
20260502160503 20 59 9.7 24.1 0.00 0.00 0.00 82 1018.1
20260502152003 20 60 9.7 22.5 0.00 0.00 0.00 80 1018.5
20260502151503 20 67 8.0 22.5 0.00 0.00 0.00 79 1018.7
20260502151214 20 65 6.4 17.7 0.00 0.00 0.00 80 1018.6
20260502150503 20 51 9.7 24.1 0.00 0.00 0.00 80 1018.8
20260502130503 20 92 8.0 20.9 0.00 0.00 0.00 80 1020.1
20260502123503 20 96 11.3 24.1 0.00 0.00 0.00 81 1020.0
20260502123003 20 96 12.9 25.7 0.00 0.00 0.00 82 1020.0
20260502122503 19 96 14.5 25.7 0.00 0.00 0.00 82 1020.2
20260502122215 19 102 14.5 25.7 0.00 0.00 0.00 82 1020.4
20260502121713 20 108 12.9 24.1 0.00 0.00 0.00 82 1020.3
20260502121003 20 106 9.7 20.9 0.00 0.00 0.00 81 1020.5
20260502120714 20 101 8.0 20.9 0.00 0.00 0.00 81 1020.5
20260502115503 20 102 11.3 25.7 0.00 0.00 0.00 81 1020.3
20260502115003 20 99 12.9 25.7 0.00 0.00 0.00 81 1020.4
20260502114503 20 96 11.3 24.1 0.00 0.00 0.00 80 1020.3
20260502114003 20 100 9.7 27.4 0.00 0.00 0.00 80 1020.5
20260502113503 20 76 9.7 27.4 0.00 0.00 0.00 80 1020.5
20260502113003 20 64 8.0 25.7 0.00 0.00 0.00 80 1020.8
20260502112504 20 82 9.7 29.0 0.00 0.00 0.00 80 1020.7
20260502112003 20 78 11.3 29.0 0.00 0.00 0.00 80 1020.6
20260502111713 20 65 8.0 27.4 0.00 0.00 0.00 80 1020.5
20260502111216 20 76 8.0 22.5 0.00 0.00 0.00 80 1020.7
20260502110503 20 95 9.7 24.1 0.00 0.00 0.00 81 1020.9
20260502110217 20 106 11.3 25.7 0.00 0.00 0.00 81 1020.9
20260502105504 20 101 12.9 27.4 0.00 0.00 0.00 82 1021.1
20260502105003 20 80 9.7 33.8 0.00 0.00 0.00 81 1020.9
20260502104504 20 86 9.7 33.8 0.00 0.00 0.00 82 1021.0
20260502104214 20 86 9.7 33.8 0.00 0.00 0.00 83 1021.0
20260502103503 20 83 8.0 22.5 0.00 0.00 0.00 82 1021.0
20260502103003 20 96 9.7 27.4 0.00 0.00 0.00 81 1021.2
20260502102504 20 99 9.7 27.4 0.00 0.00 0.00 81 1021.1
20260502102003 20 89 9.7 25.7 0.00 0.00 0.00 81 1021.1
20260502101503 20 85 9.7 25.7 0.00 0.00 0.00 81 1021.5
20260502101003 19 77 9.7 33.8 0.00 0.00 0.00 82 1021.2
20260502100503 19 87 11.3 33.8 0.00 0.00 0.00 83 1021.5
20260502091503 20 40 9.7 25.7 0.00 0.00 0.00 80 1021.5
20260502091003 19 52 8.0 29.0 0.00 0.00 0.00 80 1021.5
20260502090503 19 52 8.0 29.0 0.00 0.00 0.00 80 1021.5
20260502071504 18 60 6.4 16.1 0.00 0.00 0.00 86 1021.4
20260502071003 18 52 6.4 17.7 0.00 0.00 0.00 86 1021.6
20260502070503 18 42 9.7 25.7 0.00 0.00 0.00 86 1021.4
20260502070215 18 46 8.0 25.7 0.00 0.00 0.00 86 1021.7
20260502065503 18 60 8.0 20.9 0.00 0.00 0.00 86 1021.8
20260502065003 18 59 8.0 24.1 0.00 0.00 0.00 86 1021.3
20260502064503 18 56 8.0 24.1 0.00 0.00 0.00 86 1021.5
20260502064003 18 50 6.4 24.1 0.00 0.00 0.00 86 1021.4
20260502063503 18 52 6.4 24.1 0.00 0.00 0.00 87 1021.5
20260502063212 18 46 6.4 20.9 0.00 0.00 0.00 87 1021.5
20260502062504 18 29 6.4 12.9 0.00 0.00 0.00 86 1021.4
20260502062003 18 33 4.8 12.9 0.00 0.00 0.00 86 1021.6
20260502061503 18 29 4.8 12.9 0.00 0.00 0.00 86 1021.4
20260502061003 18 360 4.8 12.9 0.00 0.00 0.00 86 1021.3
20260502060712 18 352 4.8 11.3 0.00 0.00 0.00 86 1021.2
20260502060003 18 20 4.8 12.9 0.00 0.00 0.00 86 1021.0
20260502055503 18 26 4.8 12.9 0.00 0.00 0.00 86 1021.1
20260502055004 18 8 4.8 11.3 0.00 0.00 0.00 86 1021.2
20260502054714 18 9 4.8 11.3 0.00 0.00 0.00 86 1021.2
20260502054003 18 357 4.8 11.3 0.00 0.00 0.00 86 1021.3
20260502053503 18 347 4.8 9.7 0.00 0.00 0.00 86 1021.2
20260502053004 18 342 4.8 9.7 0.00 0.00 0.00 86 1021.3
20260502052503 18 340 4.8 9.7 0.00 0.00 0.00 86 1021.2
20260502052214 18 331 4.8 9.7 0.00 0.00 0.00 86 1021.3
20260502051504 18 353 6.4 14.5 0.00 0.00 0.00 86 1021.3
20260502051003 18 352 6.4 14.5 0.00 0.00 0.00 86 1021.3
20260502050503 18 352 6.4 14.5 0.00 0.00 0.00 86 1021.3
20260502050003 18 343 6.4 14.5 0.00 0.00 0.00 86 1021.2
20260502045503 18 333 8.0 16.1 0.00 0.00 0.00 86 1021.2
20260502045003 18 348 8.0 16.1 0.00 0.00 0.00 86 1021.2
20260502044504 18 354 8.0 14.5 0.00 0.00 0.00 86 1021.2
20260502044003 18 353 8.0 14.5 0.00 0.00 0.00 87 1021.5
20260502043503 18 347 8.0 12.9 0.00 0.00 0.00 87 1021.2
20260502043003 18 345 8.0 12.9 0.00 0.00 0.00 87 1021.1
20260502042506 18 351 6.4 12.9 0.00 0.00 0.00 87 1021.4
20260502042003 18 353 4.8 9.7 0.00 0.00 0.00 87 1021.2
20260502041503 18 349 6.4 11.3 0.00 0.00 0.00 87 1021.2
20260502041006 18 347 8.0 16.1 0.00 0.00 0.00 87 1021.1
20260502040503 18 345 9.7 16.1 0.00 0.00 0.00 87 1021.5
20260502040006 18 353 8.0 17.7 0.00 0.00 0.00 87 1021.6
20260502035503 18 357 8.0 17.7 0.00 0.00 0.00 87 1021.5
20260502035003 18 345 8.0 16.1 0.00 0.00 0.00 87 1021.7
20260502034503 18 337 8.0 16.1 0.00 0.00 0.00 87 1021.5
20260502034003 18 333 6.4 12.9 0.00 0.00 0.00 87 1021.7
20260502033503 18 339 8.0 12.9 0.00 0.00 0.00 87 1021.8
20260502033003 18 347 8.0 12.9 0.00 0.00 0.00 87 1021.7
20260502032503 18 3 8.0 20.9 0.00 0.00 0.00 88 1021.7
20260502032003 18 13 8.0 20.9 0.00 0.00 0.00 88 1021.5
20260502031505 18 12 8.0 17.7 0.00 0.00 0.00 88 1021.5
20260502031003 18 20 6.4 16.1 0.00 0.00 0.00 88 1021.5
20260502030503 18 36 4.8 16.1 0.00 0.00 0.00 89 1021.7
20260502030003 18 34 6.4 16.1 0.00 0.00 0.00 89 1021.7
20260502025503 18 30 4.8 12.9 0.00 0.00 0.00 89 1021.6
20260502025003 18 28 3.2 11.3 0.00 0.00 0.00 89 1021.6
20260502024504 18 39 3.2 11.3 0.00 0.00 0.00 89 1021.5
20260502024003 18 55 3.2 9.7 0.00 0.00 0.00 89 1021.1
20260502023717 18 52 4.8 16.1 0.00 0.00 0.00 89 1021.3
20260502023003 18 53 4.8 16.1 0.00 0.00 0.00 89 1021.4
20260502022503 18 51 3.2 14.5 0.00 0.00 0.00 89 1021.5
20260502022005 18 73 4.8 14.5 0.00 0.00 0.00 89 1021.4
20260502021503 18 100 6.4 14.5 0.00 0.00 0.00 89 1021.3
20260502021217 18 94 4.8 14.5 0.00 0.00 0.00 89 1021.3
20260502020715 18 71 3.2 12.9 0.00 0.00 0.00 89 1021.2
20260502020003 18 44 3.2 11.3 0.00 0.00 0.00 88 1021.6
20260502015503 18 55 3.2 11.3 0.00 0.00 0.00 88 1021.8
20260502015003 18 68 4.8 14.5 0.00 0.00 0.00 88 1021.8
20260502014503 18 56 4.8 14.5 0.00 0.00 0.00 88 1021.8
20260502014003 18 54 4.8 14.5 0.00 0.00 0.00 88 1021.9